Current weather by "City, St" or "zip code"  
 
Advertise Here

Current Conditions: Clarksville Outlaw Field, TN

Overcast


37.0 F

Last Updated on Jan 27 2021, 12:52 pm CST
Humidity: 73%
Wind Speed: NW 9.2 mph
Barometer 30.15 in
Dewpoint: 28.9 F
Visibility: 10.00 mi
Precip: --
Heat Index: NA
Wind Chill: 30 F
Current conditions at:

Clarksville Outlaw Field, TN (KCKV)

Lat: 36.61689 Lon: 87.41174

Local Radar Image active severe weather and emergency alerts image image weather storm and storm spotter reports image weather observation monitoring service image
Local
Radar
Active
Alerts
Storm Reports Obs
Monitoring

Sign-up For Email & Text Message Weather Alert Notification Services


Advertise Here

Observation History for Clarksville Outlaw Field, TN


Time Wind
(mph)
Vis
(mi)
Weather Precip (in) Temperature (F) Relative
Humidity
Wind
Chill
(F)
Heat
Index
(F)
Pressure
Air Dwpt altimeter
(in)
sea level
(mb)
Rmks
12:52 pm CST NW 9.2 10.00 Overcast -- 37.0 28.9 73% 30 NA 30.15 1021.4
11:52 am CST NE 9.2 10.00 Overcast -- 38.0 28.9 70% 32 NA 30.14 1021.0
10:52 am CST NE 13.8 9.00 Overcast -- 37.0 28.9 73% 28 NA 30.17 1022.1
9:52 am CST N 8.1 10.00 Overcast -- 36.0 28.9 76% 30 NA 30.21 1023.2
8:52 am CST N 6.9 7.00 Overcast -- 36.0 30.9 82% 30 NA 30.16 1021.5
7:52 am CST N 0.0 6.00 Fog/Mist -- 33.0 30.0 89% NA NA 30.13 1020.6
6:52 am CST N 8.1 7.00 Fair -- 31.0 28.0 89% 24 NA 30.11 1019.9
5:52 am CST NE 4.6 8.00 Fair -- 30.0 28.0 92% 25 NA 30.10 1019.5
4:52 am CST E 4.6 8.00 Fair -- 32.0 28.9 88% 27 NA 30.10 1019.6
3:52 am CST NE 4.6 7.00 Fair -- 34.0 30.0 85% 30 NA 30.13 1020.5
2:52 am CST NE 6.9 8.00 Fair -- 34.0 30.0 85% 28 NA 30.15 1021.1
1:52 am CST N 6.9 9.00 Fair -- 34.0 30.9 89% 28 NA 30.15 1021.2
12:52 am CST N 8.1 10.00 Fair -- 35.0 32.0 89% 28 NA 30.11 1019.9
11:52 pm CST N 6.9 10.00 Fair -- 36.0 32.0 86% 30 NA 30.11 1019.7
10:52 pm CST N 6.9 10.00 Partly Cloudy -- 37.0 33.1 86% 32 NA 30.09 1018.9
9:52 pm CST N 5.8 10.00 Fair -- 38.0 33.1 83% 34 NA 30.07 1018.5
8:52 pm CST N 9.2 10.00 Fair -- 39.0 34.0 82% 33 NA 30.06 1018.1
7:52 pm CST N 12.7 10.00 A Few Clouds -- 42.0 35.1 76% 35 NA 30.05 1017.8
6:52 pm CST N 6.9 10.00 Overcast -- 45.0 39.0 80% 41 NA 30.03 1016.9
5:52 pm CST NW 11.5 10.00 Fair -- 47.0 39.9 77% 42 NA 29.99 1015.7
4:52 pm CST NW 12.7 10.00 Partly Cloudy -- 51.0 41.0 69% 46 NA 29.98 1015.1
3:52 pm CST W 9.2 10.00 Fair -- 54.0 41.0 62% 51 NA 29.94 1013.9
2:52 pm CST W 9.2 10.00 Partly Cloudy -- 56.0 45.0 67% 54 NA 29.92 1013.2
1:52 pm CST W 10.4 10.00 Mostly Cloudy -- 54.0 45.0 72% 51 NA 29.91 1012.6

Regional Weather Observation


Clarksville Outlaw Field, TN (KCKV)

Overcast
37.0 F

Dickson Municipal Airport, TN (KM02)

Overcast
37.0 F

Muhlenberg County Airport, KY (KM21)

Overcast
36.0 F

Madisonville Municipal Airport, KY (K2I0)

Overcast
37.0 F

Murray Kyle Oakley Field, KY, KY (KCEY)

Mostly Cloudy
36.0 F

Springfield Robertson County Airport, TN (KM91)

Partly Cloudy
37.0 F